• In Portugal
  • List of Countries
  • For 7 days
  • Water Temperature
  • Satellite Maps
  • Weather Map
  • Weather Widgets
  • user-avatar
    Login

    Hourly Weather San Luis

    Today, 24 April, Tuesday

    Time Temperature Precipitation Wind Pressure Humidity
    00:00 +19°C° 0.1 mm 5 mps 701 mmHg 83%
    01:00 +19°C° 0.1 mm 4 mps 700 mmHg 83%
    02:00 +19°C° 0 mm 4 mps 700 mmHg 85%
    03:00 +19°C° 0.2 mm 4 mps 700 mmHg 84%
    04:00 +19°C° 0.2 mm 4 mps 700 mmHg 84%
    05:00 +19°C° 0.2 mm 4 mps 700 mmHg 84%
    06:00 +19°C° 0.1 mm 4 mps 700 mmHg 83%
    07:00 +20°C° 0.1 mm 4 mps 700 mmHg 81%
    08:00 +20°C° 0.1 mm 5 mps 700 mmHg 79%
    09:00 +22°C° 0.1 mm 5 mps 700 mmHg 73%
    10:00 +23°C° 0.1 mm 6 mps 700 mmHg 67%
    11:00 +26°C° 0.1 mm 6 mps 701 mmHg 61%
    12:00 +26°C° 0.1 mm 6 mps 700 mmHg 59%
    13:00 +27°C° 0.1 mm 6 mps 700 mmHg 57%
    14:00 +27°C° 0.1 mm 5 mps 699 mmHg 55%
    15:00 +27°C° 0 mm 5 mps 699 mmHg 56%
    16:00 +26°C° 0 mm 4 mps 699 mmHg 58%
    17:00 +26°C° 0 mm 3 mps 698 mmHg 59%
    18:00 +25°C° 0 mm 3 mps 699 mmHg 66%
    19:00 +22°C° 0 mm 3 mps 699 mmHg 72%
    20:00 +21°C° 0 mm 3 mps 699 mmHg 79%
    21:00 +20°C° 0 mm 2 mps 699 mmHg 81%
    22:00 +20°C° 0 mm 2 mps 700 mmHg 83%
    23:00 +19°C° 0 mm 2 mps 700 mmHg 86%

    Tomorrow, 25 April, Wednesday

    Time Temperature Precipitation Wind Pressure Humidity
    00:00 +19°C° 0.1 mm 2 mps 700 mmHg 87%
    01:00 +19°C° 0.1 mm 2 mps 700 mmHg 88%
    02:00 +19°C° 0.1 mm 2 mps 700 mmHg 89%
    03:00 +19°C° 0.1 mm 2 mps 700 mmHg 89%
    04:00 +19°C° 0.1 mm 2 mps 700 mmHg 90%
    05:00 +19°C° 0.1 mm 2 mps 700 mmHg 90%
    06:00 +19°C° 0 mm 2 mps 700 mmHg 89%
    07:00 +19°C° 0 mm 2 mps 701 mmHg 87%
    08:00 +20°C° 0 mm 3 mps 701 mmHg 85%
    09:00 +22°C° 0 mm 3 mps 701 mmHg 77%
    10:00 +24°C° 0 mm 3 mps 702 mmHg 70%
    11:00 +26°C° 0 mm 3 mps 702 mmHg 62%
    12:00 +27°C° 0.1 mm 4 mps 701 mmHg 59%
    13:00 +28°C° 0.1 mm 4 mps 700 mmHg 55%
    14:00 +28°C° 0.1 mm 4 mps 700 mmHg 52%
    15:00 +28°C° 0 mm 4 mps 699 mmHg 55%
    16:00 +28°C° 0 mm 4 mps 699 mmHg 57%
    17:00 +27°C° 0 mm 4 mps 698 mmHg 59%
    18:00 +26°C° 0 mm 4 mps 698 mmHg 65%
    19:00 +23°C° 0 mm 4 mps 698 mmHg 71%
    20:00 +22°C° 0 mm 4 mps 698 mmHg 77%
    21:00 +22°C° 0 mm 4 mps 698 mmHg 78%
    22:00 +22°C° 0 mm 5 mps 698 mmHg 78%
    23:00 +21°C° 0 mm 5 mps 698 mmHg 78%

    Day after tomorrow, 26 April, Thursday

    Time Temperature Precipitation Wind Pressure Humidity
    00:00 +21°C° 0 mm 6 mps 697 mmHg 78%
    01:00 +21°C° 0 mm 6 mps 697 mmHg 78%
    02:00 +21°C° 0 mm 6 mps 697 mmHg 78%
    03:00 +21°C° 0 mm 6 mps 696 mmHg 77%
    04:00 +21°C° 0 mm 6 mps 696 mmHg 76%
    05:00 +21°C° 0 mm 6 mps 695 mmHg 74%
    06:00 +21°C° 0 mm 6 mps 695 mmHg 73%
    07:00 +22°C° 0 mm 7 mps 695 mmHg 71%
    08:00 +22°C° 0 mm 7 mps 695 mmHg 70%
    09:00 +24°C° 0 mm 8 mps 695 mmHg 62%
    10:00 +27°C° 0 mm 10 mps 695 mmHg 54%
    11:00 +29°C° 0 mm 11 mps 695 mmHg 46%
    12:00 +31°C° 0 mm 11 mps 695 mmHg 43%
    13:00 +32°C° 0 mm 11 mps 694 mmHg 39%
    14:00 +33°C° 0 mm 11 mps 693 mmHg 36%
    15:00 +33°C° 0 mm 10 mps 692 mmHg 36%
    16:00 +32°C° 0 mm 9 mps 692 mmHg 37%
    17:00 +31°C° 0 mm 8 mps 692 mmHg 38%
    18:00 +29°C° 0 mm 8 mps 692 mmHg 42%
    19:00 +27°C° 0 mm 7 mps 692 mmHg 46%
    20:00 +26°C° 0 mm 7 mps 692 mmHg 51%
    21:00 +26°C° 0 mm 7 mps 693 mmHg 51%
    22:00 +24°C° 0 mm 8 mps 693 mmHg 52%
    23:00 +24°C° 0 mm 8 mps 694 mmHg 53%

    27 April, Friday

    Time Temperature Precipitation Wind Pressure Humidity
    00:00 +24°C° 0 mm 7 mps 694 mmHg 55%
    01:00 +23°C° 0 mm 6 mps 694 mmHg 57%
    02:00 +23°C° 0 mm 5 mps 694 mmHg 58%
    03:00 +22°C° 0 mm 5 mps 695 mmHg 61%
    04:00 +22°C° 0 mm 4 mps 695 mmHg 63%
    05:00 +21°C° 0 mm 3 mps 695 mmHg 65%
    06:00 +20°C° 0 mm 5 mps 696 mmHg 65%
    07:00 +20°C° 0 mm 7 mps 697 mmHg 65%
    08:00 +18°C° 0 mm 9 mps 698 mmHg 66%
    09:00 +18°C° 0 mm 9 mps 699 mmHg 60%
    10:00 +18°C° 0 mm 9 mps 700 mmHg 55%
    11:00 +18°C° 0 mm 9 mps 700 mmHg 50%
    12:00 +20°C° 0 mm 8 mps 700 mmHg 46%
    13:00 +20°C° 0 mm 8 mps 700 mmHg 42%
    14:00 +20°C° 0 mm 8 mps 700 mmHg 39%
    15:00 +20°C° 0 mm 8 mps 700 mmHg 38%
    16:00 +18°C° 0 mm 8 mps 700 mmHg 38%
    17:00 +18°C° 0 mm 8 mps 700 mmHg 38%
    18:00 +17°C° 0 mm 7 mps 700 mmHg 39%
    19:00 +16°C° 0 mm 6 mps 701 mmHg 40%
    20:00 +15°C° 0 mm 6 mps 701 mmHg 41%
    21:00 +14°C° 0 mm 5 mps 701 mmHg 43%
    22:00 +14°C° 0 mm 5 mps 701 mmHg 44%
    23:00 +13°C° 0 mm 5 mps 702 mmHg 45%

    28 April, Saturday

    Time Temperature Precipitation Wind Pressure Humidity
    00:00 +13°C° 0 mm 5 mps 702 mmHg 47%
    01:00 +13°C° 0 mm 4 mps 701 mmHg 49%
    02:00 +13°C° 0 mm 4 mps 701 mmHg 51%
    03:00 +12°C° 0 mm 4 mps 701 mmHg 53%
    04:00 +12°C° 0 mm 4 mps 701 mmHg 55%
    05:00 +12°C° 0 mm 4 mps 701 mmHg 57%
    06:00 +12°C° 0 mm 4 mps 701 mmHg 56%
    07:00 +13°C° 0 mm 4 mps 702 mmHg 55%
    08:00 +13°C° 0 mm 4 mps 702 mmHg 53%
    09:00 +17°C° 0 mm 4 mps 703 mmHg 51%
    10:00 +19°C° 0 mm 4 mps 703 mmHg 48%
    11:00 +21°C° 0 mm 4 mps 703 mmHg 45%
    12:00 +22°C° 0 mm 4 mps 703 mmHg 45%
    13:00 +23°C° 0 mm 4 mps 702 mmHg 44%
    14:00 +23°C° 0 mm 4 mps 702 mmHg 44%
    15:00 +23°C° 0 mm 4 mps 702 mmHg 47%
    16:00 +22°C° 0 mm 5 mps 701 mmHg 50%
    17:00 +22°C° 0 mm 5 mps 701 mmHg 54%
    18:00 +20°C° 0 mm 5 mps 701 mmHg 61%
    19:00 +19°C° 0 mm 5 mps 701 mmHg 69%
    20:00 +16°C° 0 mm 5 mps 701 mmHg 77%
    21:00 +17°C° 0 mm 4 mps 701 mmHg 77%
    22:00 +17°C° 0 mm 4 mps 701 mmHg 78%
    23:00 +17°C° 0 mm 4 mps 701 mmHg 79%

    29 April, Sunday

    Time Temperature Precipitation Wind Pressure Humidity
    00:00 +17°C° 0 mm 4 mps 701 mmHg 80%
    01:00 +17°C° 0 mm 3 mps 700 mmHg 81%
    02:00 +16°C° 0 mm 3 mps 700 mmHg 82%
    03:00 +16°C° 0 mm 3 mps 699 mmHg 83%
    04:00 +16°C° 0 mm 2 mps 699 mmHg 85%
    05:00 +15°C° 0 mm 2 mps 699 mmHg 87%
    06:00 +16°C° 0 mm 2 mps 699 mmHg 84%
    07:00 +16°C° 0 mm 1 mps 699 mmHg 81%
    08:00 +18°C° 0 mm 1 mps 700 mmHg 79%
    09:00 +20°C° 0 mm 1 mps 700 mmHg 71%
    10:00 +22°C° 0 mm 1 mps 700 mmHg 63%
    11:00 +23°C° 0 mm 1 mps 700 mmHg 55%
    12:00 +24°C° 0 mm 2 mps 699 mmHg 52%
    13:00 +25°C° 0 mm 2 mps 699 mmHg 49%
    14:00 +26°C° 0 mm 2 mps 698 mmHg 47%
    15:00 +26°C° 0 mm 2 mps 698 mmHg 49%
    16:00 +25°C° 0 mm 3 mps 698 mmHg 52%
    17:00 +25°C° 0 mm 3 mps 698 mmHg 55%
    18:00 +22°C° 0 mm 3 mps 698 mmHg 64%
    19:00 +21°C° 0 mm 4 mps 698 mmHg 74%
    20:00 +19°C° 0 mm 4 mps 698 mmHg 84%
    21:00 +19°C° 0 mm 4 mps 698 mmHg 86%
    22:00 +18°C° 0 mm 3 mps 698 mmHg 88%
    23:00 +18°C° 0 mm 3 mps 699 mmHg 90%
    Show more